Location: *
(60.1759°S, 155.0663°W)
Time: 07:08:56
(UTC+00:00)

Cosmos 1898 Rocket - Pass Details

Date: 17 September 2019
Orbit: 754 x 783 km, 74.0° (Epoch: 15 October)

Event Time Altitude Azimuth Distance (km) Brightness Sun altitude
Exits shadow 14:46:08 - 341° (NNW) 3,050 6.2 -12.8°
Reaches altitude 10° 14:47:56 10° 342° (NNW) 2,356 5.7 -12.6°
Maximum altitude 14:53:15 68° 63° (ENE) 862 3.9 -11.9°
Drops below altitude 10° 14:58:39 10° 145° (SE) 2,385 6.9 -11.3°
Sets 15:01:05 0° 147° (SSE) 3,318 7.6 -11.0°
